Zurück zum Katalog

IRIDIUM 119

AktivKommunikationPO
NORAD 42959·PAYLOAD·🇺🇸 United States

Gestartet Oct 9, 2017 von Vandenberg Space Force Base

Loading…

Nächste Überflüge (nächste 24 Stunden)

TLE

AktuellSource: CelesTrak SupGP

Epoche: Sep 14, 2026, 22:28 UTC

1 42959C 17061E   26257.93645833 -.00001066  00000+0 -38110-3 0  2574
2 42959  86.4028 347.7477 0002315  96.1629 355.1935 14.34217911    17

Verfolge IRIDIUM 119 in Echtzeit mit AllMySat

Download on the App Store